Stations météo

réclame
Mon MeteoGroup
D15-FA-1, Pays-Bas (6201): Température de l'air & dewpoint: 07.12.2019 04:00:00 - 13.12.2019 04:00:00 (CET)D15-FA-1, Pays-Bas (6201): Vitesse du vent & gusts: 07.12.2019 04:00:00 - 13.12.2019 04:00:00 (CET)D15-FA-1, Pays-Bas (6201): Direction du vent: 07.12.2019 04:00:00 - 13.12.2019 04:00:00 (CET)D15-FA-1, Pays-Bas (6201): reduced air pressure: 07.12.2019 04:00:00 - 13.12.2019 04:00:00 (CET)D15-FA-1, Pays-Bas (6201): visibility: 07.12.2019 04:00:00 - 13.12.2019 04:00:00 (CET)
Date & Time tt [°C] td [°C] ff [km/h] ff [knt] fx [km/h] fx [knt] dd ppp [hPa] vv [km]
13.12.2019 04:00:00 8,0 6,7 39 21 61 33 SSE 968,5 10
13.12.2019 03:00:00 6,8 5,6 65 35 79 43 SE 969,0 9
13.12.2019 02:00:00 6,1 4,5 65 35 94 51 SSE 970,3 10
13.12.2019 01:00:00 7,0 5,1 74 40 90 49 SSE 971,5 10
13.12.2019 00:00:00 6,5 5,4 72 39 83 45 SSE 973,1 10
12.12.2019 23:00:00 7,1 5,5 74 40 72 39 SSE 974,7 10
12.12.2019 22:00:00 6,4 5,8 63 34 79 43 S 976,2 10
12.12.2019 21:00:00 6,6 6,1 70 38 76 41 SSE 978,0 10
12.12.2019 20:00:00 6,7 6,3 70 38 90 49 SSE 979,6 10
12.12.2019 19:00:00 5,7 5,3 72 39 83 45 SSE 981,4 10
12.12.2019 18:00:00 7,2 4,9 63 34 76 41 S 983,2 10
12.12.2019 17:00:00 7,9 4,1 57 31 61 33 SSE 985,0 10
12.12.2019 16:00:00 7,5 3,9 48 26 58 31 SSE 986,9 10
12.12.2019 15:00:00 7,5 2,6 44 24 47 25 S 988,2 10
12.12.2019 14:00:00 6,8 1,9 44 24 54 29 S 989,9 10
12.12.2019 13:00:00 6,5 1,6 44 24 50 27 S 991,4 10
12.12.2019 12:00:00 6,3 0,7 46 25 50 27 SSW 992,7 10
12.12.2019 11:00:00 6,3 1,2 44 24 50 27 SW 994,0 10
12.12.2019 10:00:00 6,3 1,4 39 21 43 23 SW 994,9 10
12.12.2019 09:00:00 6,5 1,8 34 18 32 18 SW 995,2 10
12.12.2019 08:00:00 6,6 1,4 29 16 29 16 WSW 995,4 10
12.12.2019 07:00:00 6,6 1,4 29 16 29 16 WSW 996,0 10
12.12.2019 06:00:00 6,7 2,1 28 15 29 16 WSW 996,4 10
12.12.2019 05:00:00 6,7 1,7 24 13 32 18 WSW 996,6 10
12.12.2019 04:00:00 6,7 1,4 31 17 36 19 W 997,0 10
12.12.2019 03:00:00 6,8 1,9 29 16 40 21 W 997,1 10
12.12.2019 02:00:00 6,3 3,3 21 11 25 14 WSW 997,3 10
12.12.2019 01:00:00 6,1 3,0 22 12 29 16 W 997,6 10
12.12.2019 00:00:00 5,6 3,1 28 15 32 18 W 997,8 10
11.12.2019 23:00:00 5,6 3,6 37 20 47 25 W 998,3 10
11.12.2019 22:00:00 7,8 3,9 41 22 47 25 SW 997,8 10
11.12.2019 21:00:00 7,7 3,6 34 18 43 23 SW 998,2 10
11.12.2019 20:00:00 7,7 3,7 34 18 40 21 SSW 998,5 10
11.12.2019 19:00:00 7,7 3,6 34 18 32 18 SW 999,0 10
11.12.2019 18:00:00 7,8 4,4 35 19 43 23 SW 999,0 10
11.12.2019 17:00:00 7,8 4,7 42 23 47 25 SW 999,2 10
11.12.2019 16:00:00 7,8 4,2 42 23 50 27 SW 999,4 10
11.12.2019 15:00:00 7,9 3,8 44 24 50 27 SW 1000,0 10
11.12.2019 14:00:00 7,5 4,5 44 24 50 27 SW 1000,6 10
11.12.2019 13:00:00 7,3 4,0 50 27 50 27 SW 1001,2 10
11.12.2019 12:00:00 7,6 4,1 46 25 47 25 SW 1001,7 10
11.12.2019 11:00:00 7,8 3,9 28 15 43 23 SW 1002,5 10
11.12.2019 10:00:00 7,8 3,6 34 18 32 18 WSW 1002,7 10
11.12.2019 09:00:00 7,8 3,9 34 18 36 19 WSW 1002,7 10
11.12.2019 08:00:00 7,8 3,6 41 22 43 23 W 1002,5 10
11.12.2019 07:00:00 7,9 3,5 48 26 47 25 W 1002,4 10
11.12.2019 06:00:00 8,0 3,8 46 25 47 25 W 1002,5 10
11.12.2019 05:00:00 8,0 3,3 44 24 50 27 WSW 1002,2 10
11.12.2019 04:00:00 8,2 3,8 46 25 54 29 W 1002,3 10
11.12.2019 03:00:00 8,4 3,9 52 28 58 31 W 1001,4 10
11.12.2019 02:00:00 8,7 3,9 55 30 65 35 W 1000,8 10
11.12.2019 01:00:00 8,8 4,2 48 26 58 31 W 999,9 10
11.12.2019 00:00:00 8,7 6,1 46 25 54 29 WSW 999,2 10
10.12.2019 23:00:00 9,3 5,9 46 25 97 53 WSW 997,8 10
10.12.2019 22:00:00 9,4 8,3 78 42 101 54 S 995,2 7
10.12.2019 21:00:00 9,8 8,0 76 41 83 45 S 995,9 9
10.12.2019 20:00:00 9,7 7,7 81 44 86 47 S 996,6 9
10.12.2019 19:00:00 9,6 7,4 81 44 90 49 S 997,0 8
10.12.2019 18:00:00 9,6 7,2 78 42 83 45 S 999,0 10
10.12.2019 17:00:00 9,4 7,0 76 41 79 43 S 1000,6 10
10.12.2019 16:00:00 9,0 7,0 74 40 79 43 S 1002,4 8
10.12.2019 15:00:00 7,9 6,3 76 41 79 43 S 1004,5 9
10.12.2019 14:00:00 9,0 5,5 74 40 76 41 S 1006,9 10
10.12.2019 13:00:00 8,9 5,1 68 37 72 39 S 1008,8 10
10.12.2019 12:00:00 8,3 4,6 61 33 65 35 S 1011,5 10
10.12.2019 11:00:00 7,8 3,3 59 32 76 41 S 1013,3 10
10.12.2019 10:00:00 7,6 2,9 54 29 65 35 SSW 1014,7 10
10.12.2019 09:00:00 7,4 3,7 54 29 61 33 SW 1016,0 10
10.12.2019 08:00:00 7,1 2,2 52 28 58 31 SW 1017,0 10
10.12.2019 07:00:00 6,9 2,0 48 26 54 29 SW 1017,7 10
10.12.2019 06:00:00 7,2 1,7 31 17 47 25 SW 1018,6 10
10.12.2019 05:00:00 7,5 -0,2 24 13 29 16 WSW 1019,4 10
10.12.2019 04:00:00 7,5 0,0 24 13 25 14 W 1020,0 10
10.12.2019 03:00:00 7,5 0,1 26 14 32 18 W 1020,4 10
10.12.2019 02:00:00 7,6 -0,3 29 16 29 16 WNW 1020,1 10
10.12.2019 01:00:00 7,4 0,1 29 16 43 23 NW 1019,7 10
10.12.2019 00:00:00 7,7 0,8 35 19 43 23 NNW 1019,4 10
09.12.2019 23:00:00 7,6 -1,0 42 23 50 27 NNW 1018,4 10
09.12.2019 22:00:00 7,1 0,6 42 23 72 39 NNW 1017,9 10
09.12.2019 21:00:00 7,5 -0,2 55 30 72 39 NW 1017,0 10
09.12.2019 20:00:00 7,8 -0,6 61 33 68 37 NNW 1015,3 10
09.12.2019 19:00:00 7,4 0,5 68 37 79 43 NNW 1014,0 10
09.12.2019 18:00:00 7,5 -0,8 72 39 83 45 NNW 1012,3 10
09.12.2019 17:00:00 8,0 -0,5 76 41 86 47 NNW 1010,5 10
09.12.2019 16:00:00 7,7 1,9 68 37 76 41 NNW 1008,7 10
09.12.2019 15:00:00 7,9 1,3 76 41 79 43 NNW 1006,6 10
09.12.2019 14:00:00 8,3 0,8 78 42 83 45 NNW 1004,5 10
09.12.2019 13:00:00 8,2 2,5 67 36 83 45 NNW 1002,4 10
09.12.2019 12:00:00 8,0 2,9 78 42 86 47 N 999,7 10
09.12.2019 11:00:00 8,5 2,8 81 44 86 47 N 997,0 10
09.12.2019 10:00:00 8,3 3,8 46 25 50 27 NNW 993,9 10
09.12.2019 09:00:00 8,3 3,4 22 12 36 19 NW 991,4 10
09.12.2019 08:00:00 8,2 5,2 31 17 50 27 W 989,6 10
09.12.2019 07:00:00 8,2 5,1 46 25 58 31 W 988,4 10
09.12.2019 06:00:00 8,0 5,0 50 27 54 29 W 987,6 10
09.12.2019 05:00:00 7,9 4,7 44 24 47 25 W 987,1 10
09.12.2019 04:00:00 7,9 4,7 42 23 47 25 WSW 986,4 10
09.12.2019 03:00:00 8,0 4,2 48 26 50 27 WSW 986,0 10
09.12.2019 02:00:00 8,0 3,7 50 27 50 27 WSW 985,8 10
09.12.2019 01:00:00 8,0 3,5 50 27 54 29 WSW 986,0 10
09.12.2019 00:00:00 8,1 3,7 52 28 54 29 WSW 986,1 10
08.12.2019 23:00:00 8,2 3,7 57 31 58 31 WSW 986,1 10
08.12.2019 22:00:00 8,2 3,5 54 29 61 33 WSW 986,3 10
08.12.2019 21:00:00 8,3 2,9 55 30 65 35 WSW 986,6 10
08.12.2019 20:00:00 8,7 3,7 55 30 61 33 WSW 986,9 10
08.12.2019 19:00:00 8,9 3,2 61 33 61 33 WSW 987,4 10
08.12.2019 18:00:00 9,1 4,2 55 30 65 35 WSW 988,0 10
08.12.2019 17:00:00 9,3 3,5 54 29 61 33 WSW 988,0 10
08.12.2019 16:00:00 9,2 4,0 55 30 58 31 WSW 988,6 10
08.12.2019 15:00:00 9,2 4,6 55 30 58 31 WSW 989,1 10
08.12.2019 14:00:00 9,0 4,8 54 29 61 33 WSW 989,7 10
08.12.2019 13:00:00 9,2 4,9 52 28 58 31 WSW 990,1 10
08.12.2019 12:00:00 9,4 4,9 55 30 65 35 WSW 990,3 10
08.12.2019 11:00:00 9,6 5,3 52 28 58 31 W 990,3 10
08.12.2019 10:00:00 10,1 6,1 52 28 61 33 W 989,8 10
08.12.2019 09:00:00 10,3 7,0 54 29 61 33 W 989,2 10
08.12.2019 08:00:00 10,4 7,4 57 31 68 37 WSW 988,4 10
08.12.2019 07:00:00 10,3 8,9 63 34 68 37 SW 988,2 10
08.12.2019 06:00:00 10,4 8,9 80 43 94 51 SW 987,9 8
08.12.2019 05:00:00 9,6 8,7 87 47 101 54 - 989,3 5
08.12.2019 04:00:00 8,9 8,8 83 45 94 51 SW 991,2 2,2
08.12.2019 03:00:00 9,1 7,7 74 40 86 47 SW 992,7 3,1
08.12.2019 02:00:00 9,1 7,2 74 40 83 45 SW 995,0 10
08.12.2019 01:00:00 9,1 7,1 67 36 76 41 SW 997,1 10
08.12.2019 00:00:00 9,0 7,1 54 29 76 41 SW 998,8 10
07.12.2019 23:00:00 9,3 7,2 48 26 72 39 SW 1000,4 10
07.12.2019 22:00:00 9,2 7,3 61 33 68 37 SW 1001,8 10
07.12.2019 21:00:00 9,1 6,8 50 27 58 31 SW 1003,7 10
07.12.2019 20:00:00 9,4 6,5 44 24 47 25 SW 1004,9 10
07.12.2019 19:00:00 9,3 6,4 41 22 43 23 SW 1005,9 10
07.12.2019 18:00:00 9,1 6,9 35 19 36 19 SW 1006,6 10
07.12.2019 17:00:00 9,2 7,2 34 18 32 18 WSW 1007,2 10
07.12.2019 16:00:00 9,3 7,0 31 17 40 21 W 1007,4 10
07.12.2019 15:00:00 9,2 6,9 39 21 43 23 - 1007,4 10
07.12.2019 14:00:00 9,3 6,9 42 23 50 27 W 1007,2 10
07.12.2019 13:00:00 9,3 7,1 44 24 47 25 W 1007,4 10
07.12.2019 12:00:00 9,4 7,0 42 23 47 25 W 1007,5 10
07.12.2019 11:00:00 9,4 7,2 37 20 43 23 W 1007,5 10
07.12.2019 10:00:00 9,3 7,4 34 18 43 23 W 1007,0 10
07.12.2019 09:00:00 9,3 7,2 35 19 40 21 W 1006,7 10
07.12.2019 08:00:00 9,3 7,4 44 24 47 25 W 1006,2 10
07.12.2019 07:00:00 9,3 7,3 46 25 47 25 W 1005,3 10
07.12.2019 06:00:00 9,4 7,2 52 28 50 27 W 1004,0 10
07.12.2019 05:00:00 9,4 7,2 48 26 50 27 W 1003,4 10
07.12.2019 04:00:00 9,5 7,2 52 28 54 29 W 1002,4 10

tt = Température de l'air
td = dewpoint
ff = Vitesse du vent
fx = gusts
dd = Direction du vent
ppp = reduced air pressure
vv = visibility

stations d'obs. à proximité